�������l�o���
Date,Time,MP-1(��Sv/h),MP-2(��Sv/h),MP-3(��Sv/h),MP-4(��Sv/h),MP-5(��Sv/h),MP-6(��Sv/h),MP-7(��Sv/h),MP-8(��Sv/h),����,����(m/s),���J
2022/01/03,00:00,0.582,0.875,0.554,1.072,0.748,0.351,0.612,0.581,�k��,3.3,��
2022/01/03,00:10,0.582,0.876,0.555,1.074,0.747,0.351,0.612,0.581,�k��,6.1,�L
2022/01/03,00:20,0.583,0.876,0.556,1.072,0.746,0.350,0.612,0.580,�k��,5.8,��
2022/01/03,00:30,0.584,0.876,0.554,1.073,0.747,0.350,0.613,0.580,���k��,3.4,��
2022/01/03,00:40,0.584,0.876,0.554,1.075,0.746,0.352,0.612,0.581,�쐼,1.1,��
2022/01/03,00:50,0.584,0.879,0.554,1.072,0.747,0.350,0.611,0.581,��,0.9,��
2022/01/03,01:00,0.583,0.876,0.556,1.073,0.745,0.351,0.612,0.580,�k��,3.0,��
2022/01/03,01:10,0.582,0.878,0.556,1.075,0.745,0.351,0.611,0.581,�k��,7.4,��
2022/01/03,01:20,0.581,0.875,0.553,1.072,0.746,0.352,0.611,0.580,�k��,7.1,��
2022/01/03,01:30,0.584,0.876,0.555,1.075,0.746,0.351,0.612,0.580,�k��,6.8,��
2022/01/03,01:40,0.583,0.876,0.553,1.072,0.746,0.352,0.612,0.578,�k��,4.5,��
2022/01/03,01:50,0.582,0.877,0.554,1.077,0.746,0.351,0.610,0.580,�k�k��,4.8,��
2022/01/03,02:00,0.582,0.875,0.554,1.073,0.747,0.352,0.611,0.581,�k�k��,4.9,��
2022/01/03,02:10,0.583,0.878,0.554,1.072,0.748,0.351,0.612,0.582,�k��,5.6,��
2022/01/03,02:20,0.582,0.876,0.555,1.071,0.748,0.350,0.610,0.579,�k��,5.7,��
2022/01/03,02:30,0.581,0.873,0.554,1.071,0.747,0.350,0.612,0.580,�k��,6.8,��
2022/01/03,02:40,0.582,0.875,0.554,1.074,0.745,0.351,0.612,0.580,�k��,7.9,��
2022/01/03,02:50,0.581,0.876,0.554,1.074,0.745,0.348,0.611,0.580,�k��,7.0,��
2022/01/03,03:00,0.581,0.875,0.553,1.072,0.746,0.351,0.613,0.582,�k��,8.2,��
2022/01/03,03:10,0.582,0.875,0.554,1.074,0.747,0.352,0.611,0.580,�k��,7.8,��
2022/01/03,03:20,0.582,0.874,0.553,1.074,0.747,0.350,0.610,0.579,�k��,8.7,��
2022/01/03,03:30,0.582,0.876,0.552,1.075,0.746,0.349,0.612,0.578,�k��,7.9,��
2022/01/03,03:40,0.579,0.876,0.553,1.075,0.745,0.350,0.612,0.581,�k��,6.3,��
2022/01/03,03:50,0.582,0.875,0.551,1.075,0.746,0.348,0.612,0.581,�k��,7.0,��
2022/01/03,04:00,0.580,0.876,0.552,1.073,0.743,0.350,0.612,0.580,�k��,7.4,��
2022/01/03,04:10,0.582,0.874,0.553,1.073,0.745,0.350,0.611,0.581,�k��,6.4,��
2022/01/03,04:20,0.581,0.877,0.552,1.074,0.746,0.351,0.613,0.579,�k��,6.7,��
2022/01/03,04:30,0.582,0.877,0.552,1.073,0.747,0.349,0.612,0.580,�k��,7.9,��
2022/01/03,04:40,0.580,0.876,0.551,1.071,0.743,0.349,0.611,0.579,�k��,7.3,��
2022/01/03,04:50,0.581,0.875,0.554,1.075,0.746,0.350,0.612,0.580,�k��,7.9,��
2022/01/03,05:00,0.580,0.874,0.553,1.073,0.746,0.350,0.613,0.580,�k��,8.1,��
2022/01/03,05:10,0.579,0.874,0.552,1.078,0.747,0.348,0.613,0.580,�k��,8.5,��
2022/01/03,05:20,0.581,0.875,0.552,1.074,0.747,0.348,0.612,0.580,�k��,7.7,��
2022/01/03,05:30,0.583,0.875,0.553,1.075,0.744,0.350,0.613,0.579,�k��,8.4,��
2022/01/03,05:40,0.581,0.874,0.552,1.075,0.744,0.348,0.611,0.579,�k��,8.7,��
2022/01/03,05:50,0.581,0.875,0.552,1.072,0.746,0.349,0.612,0.578,�k��,6.4,��
2022/01/03,06:00,0.580,0.875,0.553,1.073,0.743,0.349,0.613,0.579,�k��,6.5,��
2022/01/03,06:10,0.582,0.877,0.553,1.075,0.744,0.348,0.612,0.580,�k��,6.2,��
2022/01/03,06:20,0.581,0.875,0.555,1.074,0.746,0.350,0.613,0.579,�k��,6.6,��
2022/01/03,06:30,0.581,0.876,0.553,1.074,0.745,0.350,0.613,0.582,�k��,5.7,��
2022/01/03,06:40,0.581,0.876,0.552,1.073,0.745,0.351,0.612,0.580,�k��,6.3,��
2022/01/03,06:50,0.581,0.873,0.555,1.074,0.745,0.349,0.613,0.579,�k��,6.1,��
2022/01/03,07:00,0.581,0.875,0.554,1.074,0.744,0.350,0.612,0.578,�k��,5.5,��
2022/01/03,07:10,0.579,0.873,0.552,1.075,0.744,0.350,0.611,0.579,�k��,5.7,��
2022/01/03,07:20,0.581,0.877,0.553,1.073,0.743,0.350,0.612,0.578,�k��,4.5,��
2022/01/03,07:30,0.580,0.877,0.552,1.074,0.744,0.351,0.612,0.579,���k��,2.9,��
2022/01/03,07:40,0.580,0.876,0.554,1.074,0.746,0.351,0.611,0.579,�k��,1.7,��
2022/01/03,07:50,0.580,0.876,0.554,1.074,0.746,0.349,0.613,0.581,���k��,1.1,��
2022/01/03,08:00,0.581,0.876,0.556,1.073,0.743,0.352,0.611,0.580,���k��,1.5,��
2022/01/03,08:10,0.582,0.875,0.553,1.071,0.744,0.351,0.612,0.581,-,CALM,��
2022/01/03,08:20,0.581,0.876,0.554,1.072,0.746,0.350,0.611,0.581,-,CALM,��
2022/01/03,08:30,0.583,0.876,0.555,1.073,0.744,0.349,0.610,0.581,�k�k��,0.6,��
2022/01/03,08:40,0.580,0.875,0.554,1.074,0.745,0.350,0.612,0.580,�k��,0.6,��
2022/01/03,08:50,0.581,0.876,0.553,1.074,0.746,0.350,0.612,0.580,��,1.4,��
2022/01/03,09:00,0.583,0.876,0.555,1.073,0.745,0.351,0.612,0.580,���k��,2.0,��
2022/01/03,09:10,0.581,0.875,0.553,1.072,0.744,0.349,0.610,0.581,��,3.0,��
2022/01/03,09:20,0.583,0.877,0.553,1.073,0.746,0.350,0.611,0.579,��,2.9,��
2022/01/03,09:30,0.582,0.875,0.553,1.073,0.745,0.350,0.614,0.579,��,2.2,��
2022/01/03,09:40,0.583,0.877,0.554,1.073,0.745,0.352,0.614,0.579,��,2.3,��
2022/01/03,09:50,0.582,0.876,0.554,1.075,0.744,0.350,0.614,0.580,��,1.5,��
2022/01/03,10:00,0.583,0.877,0.556,1.073,0.747,0.351,0.612,0.579,���k��,2.2,��
2022/01/03,10:10,0.581,0.879,0.556,1.074,0.745,0.350,0.611,0.580,���k��,3.0,��
2022/01/03,10:20,0.584,0.876,0.554,1.073,0.746,0.351,0.612,0.580,-,CALM,��
2022/01/03,10:30,0.583,0.878,0.554,1.076,0.745,0.351,0.611,0.582,���k��,2.0,��
2022/01/03,10:40,0.582,0.876,0.555,1.071,0.746,0.351,0.611,0.582,��,3.6,��
2022/01/03,10:50,0.584,0.877,0.555,1.075,0.747,0.352,0.613,0.579,��,4.7,��
2022/01/03,11:00,0.583,0.876,0.554,1.073,0.747,0.352,0.614,0.581,��,4.2,��
2022/01/03,11:10,0.584,0.878,0.555,1.074,0.747,0.351,0.613,0.579,���k��,2.0,��
2022/01/03,11:20,0.583,0.879,0.555,1.074,0.747,0.352,0.612,0.581,��,2.9,��
2022/01/03,11:30,0.585,0.879,0.555,1.075,0.747,0.351,0.614,0.580,��,4.1,��
2022/01/03,11:40,0.584,0.880,0.556,1.074,0.747,0.352,0.615,0.581,���k��,4.3,��
2022/01/03,11:50,0.583,0.879,0.555,1.073,0.749,0.351,0.615,0.581,�k��,3.7,��
2022/01/03,12:00,0.583,0.880,0.556,1.074,0.749,0.351,0.614,0.579,�k�k��,4.5,��
2022/01/03,12:10,0.584,0.881,0.556,1.075,0.748,0.351,0.614,0.579,�k�k��,4.1,��
2022/01/03,12:20,0.584,0.878,0.557,1.075,0.747,0.350,0.613,0.581,�k��,4.4,��
2022/01/03,12:30,0.584,0.879,0.556,1.075,0.748,0.352,0.614,0.581,���k��,4.2,��
2022/01/03,12:40,0.584,0.881,0.556,1.073,0.750,0.352,0.614,0.582,�k�k��,5.0,��
2022/01/03,12:50,0.585,0.879,0.556,1.075,0.749,0.351,0.614,0.582,�k��,3.7,��
2022/01/03,13:00,0.584,0.878,0.556,1.075,0.749,0.353,0.614,0.582,�k��,2.8,��
2022/01/03,13:10,0.585,0.878,0.554,1.075,0.749,0.351,0.615,0.581,�k��,2.9,��
2022/01/03,13:20,0.586,0.877,0.555,1.074,0.749,0.352,0.614,0.581,�k��,2.8,��
2022/01/03,13:30,0.586,0.877,0.556,1.073,0.749,0.352,0.613,0.580,���k��,1.7,��
2022/01/03,13:40,0.586,0.878,0.556,1.075,0.749,0.351,0.614,0.580,��쐼,2.5,��
2022/01/03,13:50,0.586,0.878,0.557,1.077,0.750,0.354,0.614,0.579,��,6.4,��
2022/01/03,14:00,0.585,0.877,0.557,1.076,0.749,0.352,0.615,0.578,��,8.3,��
2022/01/03,14:10,0.586,0.879,0.556,1.076,0.747,0.351,0.615,0.580,���k��,7.4,��
2022/01/03,14:20,0.584,0.878,0.556,1.077,0.748,0.352,0.614,0.581,��,5.5,��
2022/01/03,14:30,0.585,0.878,0.555,1.075,0.748,0.351,0.614,0.581,��,5.6,��
2022/01/03,14:40,0.585,0.880,0.556,1.077,0.751,0.352,0.613,0.582,��,5.6,��
2022/01/03,14:50,0.584,0.878,0.557,1.076,0.749,0.352,0.614,0.582,���쐼,7.6,��
2022/01/03,15:00,0.586,0.881,0.556,1.076,0.749,0.352,0.615,0.580,��,9.1,��
2022/01/03,15:10,0.585,0.880,0.556,1.076,0.749,0.352,0.613,0.583,��,5.6,��
2022/01/03,15:20,0.585,0.880,0.557,1.077,0.747,0.352,0.613,0.581,��,6.2,��
2022/01/03,15:30,0.585,0.879,0.556,1.077,0.750,0.350,0.613,0.579,��,4.9,��
2022/01/03,15:40,0.585,0.879,0.558,1.077,0.750,0.351,0.614,0.582,��,5.1,��
2022/01/03,15:50,0.583,0.881,0.557,1.077,0.751,0.351,0.616,0.580,���k��,5.7,��
2022/01/03,16:00,0.584,0.878,0.557,1.076,0.752,0.352,0.614,0.581,��,4.1,��
2022/01/03,16:10,0.584,0.880,0.555,1.076,0.748,0.351,0.614,0.581,���k��,4.5,��
2022/01/03,16:20,0.583,0.877,0.556,1.075,0.749,0.352,0.615,0.581,���k��,4.9,��
2022/01/03,16:30,0.582,0.877,0.556,1.077,0.748,0.352,0.614,0.581,���k��,3.2,��
2022/01/03,16:40,0.584,0.879,0.557,1.077,0.750,0.352,0.615,0.581,���k��,3.9,��
2022/01/03,16:50,0.584,0.879,0.558,1.077,0.748,0.352,0.615,0.582,���k��,4.6,��
2022/01/03,17:00,0.585,0.878,0.557,1.077,0.749,0.353,0.615,0.581,���k��,5.3,��
2022/01/03,17:10,0.583,0.877,0.556,1.077,0.750,0.352,0.614,0.582,��,6.0,��
2022/01/03,17:20,0.584,0.879,0.556,1.077,0.749,0.351,0.614,0.582,��,5.6,��
2022/01/03,17:30,0.583,0.878,0.556,1.077,0.750,0.351,0.616,0.582,��,5.4,��
2022/01/03,17:40,0.584,0.879,0.556,1.076,0.751,0.351,0.615,0.581,���k��,6.7,��
2022/01/03,17:50,0.585,0.880,0.555,1.076,0.749,0.353,0.615,0.581,��,6.0,��
2022/01/03,18:00,0.584,0.878,0.556,1.077,0.749,0.351,0.613,0.581,���k��,6.4,��
2022/01/03,18:10,0.583,0.878,0.557,1.078,0.749,0.352,0.615,0.581,���k��,5.3,��
2022/01/03,18:20,0.584,0.878,0.557,1.075,0.750,0.351,0.614,0.581,��,2.2,��
2022/01/03,18:30,0.584,0.877,0.557,1.075,0.748,0.354,0.612,0.580,-,CALM,��
2022/01/03,18:40,0.584,0.878,0.556,1.076,0.748,0.352,0.612,0.582,-,CALM,��
2022/01/03,18:50,0.584,0.877,0.556,1.076,0.748,0.353,0.614,0.584,���k��,1.1,��
2022/01/03,19:00,0.585,0.879,0.555,1.076,0.748,0.352,0.615,0.583,��,1.7,��
2022/01/03,19:10,0.584,0.878,0.556,1.076,0.748,0.353,0.614,0.581,�k��,1.7,��
2022/01/03,19:20,0.583,0.880,0.555,1.077,0.748,0.351,0.613,0.581,�k�k��,2.2,��
2022/01/03,19:30,0.583,0.879,0.556,1.077,0.749,0.352,0.614,0.582,�k,2.3,��
2022/01/03,19:40,0.584,0.879,0.556,1.076,0.749,0.353,0.615,0.582,�k,2.3,��
2022/01/03,19:50,0.584,0.878,0.557,1.078,0.748,0.353,0.614,0.581,�k�k��,2.6,��
2022/01/03,20:00,0.583,0.880,0.555,1.079,0.748,0.353,0.614,0.582,�k�k��,5.2,��
2022/01/03,20:10,0.584,0.876,0.556,1.078,0.750,0.352,0.614,0.583,�k�k��,4.9,��
2022/01/03,20:20,0.585,0.881,0.556,1.077,0.749,0.351,0.614,0.582,�k�k��,5.9,��
2022/01/03,20:30,0.585,0.879,0.557,1.078,0.748,0.352,0.614,0.582,�k�k��,5.7,��
2022/01/03,20:40,0.584,0.877,0.555,1.074,0.748,0.352,0.616,0.583,�k��,4.6,��
2022/01/03,20:50,0.582,0.877,0.557,1.076,0.749,0.352,0.614,0.581,���k��,4.2,�L
2022/01/03,21:00,0.585,0.877,0.557,1.078,0.750,0.351,0.612,0.581,���k��,6.4,�L
2022/01/03,21:10,0.584,0.876,0.557,1.077,0.750,0.353,0.614,0.581,��,8.5,��
2022/01/03,21:20,0.584,0.879,0.557,1.079,0.748,0.352,0.613,0.582,��,9.7,��
2022/01/03,21:30,0.583,0.880,0.559,1.079,0.750,0.352,0.615,0.581,��,8.4,��
2022/01/03,21:40,0.584,0.879,0.556,1.075,0.749,0.351,0.616,0.581,���k��,8.2,��
2022/01/03,21:50,0.585,0.879,0.556,1.075,0.751,0.353,0.613,0.582,���k��,8.2,��
2022/01/03,22:00,0.585,0.879,0.556,1.077,0.750,0.352,0.615,0.581,���k��,8.6,��
2022/01/03,22:10,0.585,0.879,0.556,1.078,0.749,0.352,0.616,0.582,���k��,8.1,��
2022/01/03,22:20,0.586,0.878,0.555,1.076,0.747,0.353,0.614,0.582,��,7.7,��
2022/01/03,22:30,0.584,0.878,0.557,1.076,0.750,0.352,0.615,0.584,��,7.6,��
2022/01/03,22:40,0.584,0.878,0.556,1.077,0.749,0.351,0.615,0.581,��,8.7,��
2022/01/03,22:50,0.584,0.878,0.557,1.077,0.750,0.352,0.615,0.582,��,8.3,��
2022/01/03,23:00,0.585,0.879,0.556,1.077,0.748,0.352,0.614,0.581,��,7.3,��
2022/01/03,23:10,0.585,0.880,0.555,1.077,0.748,0.352,0.616,0.581,��,6.6,��
2022/01/03,23:20,0.584,0.878,0.556,1.078,0.750,0.353,0.614,0.582,���k��,6.1,��
2022/01/03,23:30,0.585,0.880,0.556,1.078,0.749,0.351,0.613,0.584,���k��,6.9,��
2022/01/03,23:40,0.583,0.879,0.556,1.080,0.748,0.351,0.615,0.582,��,8.1,��
2022/01/03,23:50,0.584,0.878,0.554,1.077,0.747,0.352,0.614,0.582,��,8.7,��
